Flag for Germany Weather past 2 weeks in Lörrach, Baden-Württemberg, Germany

Now
64 °F

Scattered clouds.


Feels Like: 64 °F
Forecast: 41 / 69 °F
Wind: 9 mph from North

Location: Bale-Mulhouse

Current Time: Aug 20, 2014 at 7:33:17 PM

Latest Report: Aug 20, 2014 at 7:00 PM


Visibility: N/A

Pressure: 30.01 "Hg

Humidity: 60%

Dew point: 50 °F

Location of LörrachLocation

Historic Weather in Lörrach — Graph

°F

Lörrach temperature yesterday

Maximum temperature yesterday: 70 °F (at 2:00 PM)
Minimum temperature yesterday: 55 °F (at 4:30 AM)
Average temperature yesterday: 62 °F

Past Weeks' High & Low Weather Summary

 TemperatureHumidityPressure
High82 °F (Aug 8, 4:00 PM)100% (Aug 6, 2:00 AM)30.18 "Hg (Aug 6, 2:00 AM)
Low50 °F (Aug 17, 4:30 AM)43% (Aug 19, 5:00 PM)29.68 "Hg (Aug 13, 9:00 AM)
Average64 °F78%29.98 "Hg
* Reported Aug 5 6:00 PM — Aug 20 6:30 PM, Lörrach, Weather by CustomWeather, © 2014

Note: Actual official high and low records may vary slightly from our data, if they occured in-between our weather recording intervals... More about our weather records

Advertising

Lörrach weather history for previous 24 hours

 ConditionsComfort  
Time TempWeatherWind HumidityBarometerVisibility
6:30 PM
Aug 20
66 °FBroken clouds.8 mph56%29.98 "HgN/A
6:00 PM68 °FBroken clouds.7 mph56%30.01 "HgN/A
5:30 PM68 °FBroken clouds.7 mph56%30.01 "HgN/A
5:00 PM66 °FBroken clouds.8 mph56%30.01 "HgN/A
4:30 PM66 °FPassing clouds.9 mph60%30.01 "HgN/A
4:00 PM68 °FPassing clouds.5 mph49%30.01 "HgN/A
3:30 PM68 °FBroken clouds.5 mph46%30.01 "HgN/A
3:00 PM68 °FBroken clouds.3 mph46%30.01 "HgN/A
2:30 PM68 °FBroken clouds.2 mph46%30.01 "HgN/A
2:00 PM68 °FBroken clouds.2 mph53%30.01 "HgN/A
1:30 PM68 °FBroken clouds.No wind53%30.01 "HgN/A
1:00 PM66 °FBroken clouds.2 mph56%30.04 "HgN/A
12:30 PM66 °FBroken clouds.2 mph52%30.04 "HgN/A
12:00 PM64 °FBroken clouds.1 mph64%30.04 "HgN/A
11:30 AM63 °FBroken clouds.1 mph64%30.04 "HgN/A
11:00 AM61 °FPartly sunny.1 mph68%30.04 "HgN/A
10:30 AM61 °FBroken clouds.1 mph72%30.04 "HgN/A
10:00 AM61 °FBroken clouds.2 mph72%30.04 "HgN/A
9:30 AM59 °FSunny.2 mph77%30.04 "Hg10 mi
9:00 AM57 °FSunny.1 mph77%30.04 "Hg10 mi
8:30 AM54 °FPassing clouds.5 mph88%30.04 "HgN/A
8:00 AM54 °FSunny.1 mph88%30.04 "Hg10 mi
7:30 AM52 °FPassing clouds.3 mph94%30.04 "HgN/A
7:00 AM50 °FClear.2 mph94%30.04 "Hg10 mi
6:30 AM52 °FPassing clouds.No wind94%30.04 "HgN/A
6:00 AM52 °FPartly cloudy.No wind94%30.04 "HgN/A
5:30 AM52 °FPassing clouds.3 mph94%30.04 "HgN/A
5:00 AM50 °FPassing clouds.2 mph94%30.04 "HgN/A
4:30 AM52 °FPassing clouds.6 mph94%30.04 "HgN/A
4:00 AM52 °FPassing clouds.3 mph94%30.04 "HgN/A
3:30 AM52 °FClear.3 mph94%30.04 "HgN/A
3:00 AM54 °FClear.3 mph88%30.01 "HgN/A
2:30 AM55 °FClear.5 mph88%30.01 "HgN/A
2:00 AM55 °FClear.3 mph88%30.04 "HgN/A
1:30 AM57 °FClear.3 mph82%30.04 "HgN/A
1:00 AM57 °FClear.3 mph77%30.04 "HgN/A
12:30 AM59 °FClear.7 mph72%30.04 "HgN/A
12:00 AM59 °FClear.6 mph72%30.01 "Hg10 mi
11:30 PM
Aug 19
59 °FClear.5 mph77%30.01 "Hg10 mi
11:00 PM59 °FClear.5 mph77%30.01 "Hg10 mi
10:30 PM59 °FClear.3 mph77%30.01 "Hg10 mi
10:00 PM61 °FClear.5 mph72%30.01 "Hg10 mi
9:30 PM61 °FSunny.5 mph72%29.98 "Hg10 mi
9:00 PM61 °FSunny.3 mph72%29.98 "Hg10 mi
8:30 PM63 °FSunny.6 mph64%29.98 "Hg10 mi
8:00 PM66 °FPassing clouds.7 mph49%29.95 "HgN/A
7:30 PM66 °FPassing clouds.9 mph49%29.95 "HgN/A
7:00 PM68 °FPassing clouds.9 mph46%29.95 "HgN/A
Weather by CustomWeather, © 2014

See weather overviewHow to use our weather pages